パンスターズ彗星

P/2019 A4 ( PanSTARRS ) 2023

English version
Home page
Updated on January 8, 2021

---------------------------------------------------------------------

・ プロフィール

・ 軌道要素

Epoch 2023 Feb. 25.0 TT = JDT 2460000.5
T 2023 Mar. 2.89700 TT                                  MPCW
q   2.3857339            (2000.0)            P               Q
n   0.23329855     Peri.  342.92615     -0.21767295     -0.95513651
a   2.6133326      Node   119.24279     +0.92021400     -0.26941608
e   0.0870913      Incl.   13.30665     +0.32530707     +0.12300092
P   4.22
From 65 observations 2018 Dec. 31-2019 Mar. 2, mean residual 0".6.

・ 光度変化

        m1 = 15.0 + 5 logΔ + 10.0 log r

---------------------------------------------------------------------

軌道要素はM.P.E.C. 2019-J142に掲載されたものです。
光度グラフはComet for Windowsで作成したものです。

---------------------------------------------------------------------

Copyright(C) Seiichi Yoshida (comet@aerith.net). All rights reserved.